Regional Weather Roundup
Issued by NWS

Home | Current Version | Previous Version | Graphics & Text | Print | Product List | Glossary On
Versions: 1 2 3 4 5 6 7 8 9 10 11 12 13 14 15 16 17 18 19 20 21 22 23 24 25 26 27 28 29 30 31 32 33 34 35 36 37 38 39 40 41 42 43 44 45 46 47 48 49 50
877
ASUS43 KLMK 231002
RWRKY
KENTUCKY REGIONAL WEATHER ROUNDUP
NATIONAL WEATHER SERVICE LOUISVILLE KY
500 AM EST TUE JAN 23 2018

NOTE "FAIR" INDICATES FEW OR NO CLOUDS BELOW 12,000 FEET
WITH NO SIGNIFICANT WEATHER AND/OR OBSTRUCTIONS TO VISIBILITY.

KYZ001>023-026-027-061>063-070>075-231100-
WESTERN AND SOUTH CENTRAL KENTUCKY

CITY           SKY/WX    TMP DP  RH WIND       PRES   REMARKS
PADUCAH        CLOUDY    41  28  60 W17G29    29.83R
HENDERSON      CLOUDY    41  30  65 W17G24    29.78R
OWENSBORO      CLOUDY    42  30  62 W16G25    29.77R
HOPKINSVILLE   CLOUDY    44  28  55 W25G35    29.82R
BOWLING GREEN  CLOUDY    46  30  53 SW9G22    29.80R
GLASGOW        NOT AVBL
$$

KYZ024-025-028>034-038-045-046-053-231100-
NORTH CENTRAL KENTUCKY

CITY           SKY/WX    TMP DP  RH WIND       PRES   REMARKS
LOUISVILLE/SDF CLOUDY    44  33  65 W14       29.73R
LOUISVILLE/LOU CLOUDY    44  33  65 W17G26    29.73R
FORT KNOX      CLOUDY    43  29  58 SW18      29.72R
$$

KYZ035>037-039>044-047>052-055>060-089>105-231100-
NORTHEAST KENTUCKY

CITY           SKY/WX    TMP DP  RH WIND       PRES   REMARKS
LEXINGTON      CLOUDY    45  30  55 SW23G33   29.72R
COVINGTON      CLOUDY    44  32  62 SW18G31   29.65R
FRANKFORT      CLOUDY    46  28  49 SW15G30   29.70R
$$

KYZ054-064>069-076>088-106>120-231100-
SOUTHEAST KENTUCKY

CITY           SKY/WX    TMP DP  RH WIND       PRES   REMARKS
JACKSON        FAIR      48  35  60 VRB7G24   29.72R
LONDON         FAIR      47  32  56 SW12      29.77R
SOMERSET       NOT AVBL
MIDDLESBORO    FAIR      49  35  60 W5        29.78R
MONTICELLO     FAIR      46  30  53 SW25      29.81R
$$





USA.gov is the U.S. government's official web portal to all federal, state and local government web resources and services.